Theta_e
311 312 312 312 311 310 309 303 300 299 297 295 294 293 293 293 292 292 291 290 289 289 289 288 287 286 285 284 284 283 282 282 281 281 281 281 280 281 280 279 279 280 279
312 313 312 310 311 305 301 301 299 297 295 294 293 293 292 292 291 291 290 289 289 288 288 287 286 285 284 283 282 282 281 281 280 279 279 279 279 278 278 278 278 277 277
312 312 311 309 304 301 300 299 298 296 294 293 293 292 291 291 290 289 289 288 288 287 287 286 284 283 282 282 281 281 281 280 279 278 278 278 277 278 278 277 276 276 276
311 310 308 303 301 300 299 298 297 295 293 292 292 291 290 290 289 288 288 287 287 286 286 284 283 282 282 281 281 280 279 278 277 277 277 276 276 276 275 275 275 275 274
310 308 303 302 301 300 299 297 295 293 292 291 291 290 290 289 288 287 287 287 286 285 284 283 282 281 281 280 279 279 277 277 276 276 275 275 275 275 274 273 274 274 274
308 304 302 301 300 299 298 296 294 292 291 291 290 289 289 288 288 287 286 286 285 285 283 282 281 280 280 279 278 277 277 275 275 275 274 274 274 273 273 273 273 273 273
304 303 302 301 300 298 297 295 293 292 291 290 290 289 288 288 287 286 286 285 285 284 283 282 281 280 279 278 277 277 276 275 274 274 274 274 273 273 272 273 272 272 272
304 304 303 301 299 297 296 294 292 291 290 290 289 288 288 288 287 286 285 284 284 283 282 281 279 278 278 277 276 276 276 275 274 273 273 272 272 272 272 272 272 272 273
304 304 302 300 298 296 295 293 291 290 290 289 288 288 287 287 286 285 285 284 283 282 280 279 278 278 277 276 275 275 274 274 274 273 272 272 272 271 271 271 271 270 271
304 303 301 298 297 296 295 293 291 290 289 288 288 287 287 286 286 285 284 283 282 281 279 278 278 277 276 275 274 274 273 273 273 272 273 273 272 271 271 270 269 269 269
303 301 300 298 296 296 294 292 290 289 288 287 287 286 286 286 285 284 283 282 281 280 278 278 277 276 275 275 274 273 273 272 272 272 272 272 272 271 270 270 269 268 268
302 300 298 297 296 295 293 292 290 288 288 287 286 286 285 285 284 283 283 282 280 278 278 277 276 275 275 274 273 273 272 272 272 272 271 271 271 270 270 269 269 269 268
300 298 296 296 296 295 293 291 290 288 288 286 286 285 284 284 283 282 281 280 278 277 277 276 275 275 274 274 273 272 272 271 271 271 271 270 269 269 269 269 269 269 269
297 296 296 296 295 294 293 291 290 289 288 286 285 284 283 283 283 282 280 279 277 276 276 276 275 274 274 273 273 272 271 271 270 270 270 269 269 269 269 268 268 268 268
296 296 296 296 295 294 293 292 291 289 287 286 285 283 282 282 281 281 280 278 276 276 276 275 275 274 274 273 272 271 271 270 270 270 269 269 268 268 268 268 267 267 266
296 296 296 296 295 294 293 292 291 290 288 286 284 283 281 281 281 280 279 277 276 275 275 275 274 273 273 272 271 271 270 270 269 269 268 268 267 267 267 267 266 266 266
296 296 296 295 295 294 293 292 291 289 287 286 284 282 280 281 280 280 279 277 275 275 275 274 274 273 272 271 271 270 270 269 269 268 267 267 267 267 266 266 266 266 266
296 296 296 295 294 293 292 291 290 288 287 285 283 281 280 280 280 279 277 276 275 274 274 274 273 272 271 270 270 269 269 269 268 268 267 267 266 265 265 265 265 265 265
294 294 294 294 293 292 291 290 288 287 285 284 282 280 280 279 279 278 277 275 274 274 273 273 272 271 271 270 269 268 268 268 267 267 266 266 266 265 265 265 264 264 264
292 291 291 291 291 290 289 288 287 286 285 282 281 280 278 278 278 278 275 274 274 274 273 272 271 270 270 269 268 267 267 267 266 266 266 266 265 265 264 264 264 263 263
291 291 290 289 289 289 288 287 286 284 283 281 279 278 278 278 278 277 274 274 273 273 272 272 271 270 269 268 267 266 266 266 265 265 265 265 265 265 264 263 263 263 263
290 290 289 288 287 287 287 286 284 283 282 280 278 278 277 278 278 275 274 273 273 272 272 271 270 269 268 267 266 265 265 265 265 264 264 265 265 264 263 263 263 263 263
289 289 288 287 286 286 285 284 283 282 280 279 278 277 277 277 276 274 273 272 272 272 270 269 268 267 267 266 266 265 265 265 264 264 264 264 264 264 263 263 262 262 262
288 287 286 286 285 285 284 283 282 280 279 278 277 276 276 276 274 272 272 272 272 270 269 268 267 267 266 266 265 265 265 265 265 264 264 264 264 263 263 262 262 262 262
288 287 285 284 284 283 282 282 281 279 278 277 276 276 275 275 272 272 272 272 270 269 268 267 266 266 265 265 265 265 265 265 265 264 264 264 263 263 262 262 262 262 262
286 284 283 283 282 281 281 280 279 278 276 276 275 275 275 273 272 272 271 270 268 268 267 266 266 265 265 265 266 265 265 265 265 265 265 265 264 263 263 262 262 262 262
Wind_Speed
15 8 4 4 1 3 9 8 8 7 7 7 8 9 10 11 11 12 14 15 15 16 16 16 17 17 16 17 18 21 22 25 31 38 40 43 44 44 47 47 49 51 53
3 2 5 6 11 10 10 8 7 7 8 8 8 9 10 10 11 13 14 14 15 15 16 17 17 16 17 19 21 23 25 27 32 41 42 43 44 45 48 51 52 53 54
16 17 15 13 11 10 8 7 8 9 8 8 9 9 10 12 13 13 14 15 16 17 17 17 17 18 19 21 23 25 28 31 35 37 42 42 44 47 51 52 52 55 54
20 17 14 13 12 11 10 10 10 10 9 9 9 9 11 13 13 14 15 15 15 16 17 18 18 19 22 23 26 27 30 34 33 35 39 42 45 47 45 51 58 54 54
18 17 16 14 13 12 12 12 11 10 9 9 10 11 13 14 14 14 15 16 16 17 17 17 18 21 23 23 25 26 32 31 32 34 38 41 42 43 43 50 50 51 49
19 18 17 16 14 14 15 14 12 11 10 11 11 12 14 15 16 15 15 16 17 17 17 18 19 21 23 23 25 28 28 29 29 32 35 37 36 41 44 42 44 46 44
20 19 18 17 16 16 16 15 13 12 11 12 13 15 15 15 16 16 16 17 17 18 18 19 19 21 22 24 27 31 28 27 27 27 31 34 39 38 37 40 40 40 45
21 20 20 19 19 18 17 16 14 14 14 15 16 16 16 15 16 17 17 17 18 18 19 19 19 20 22 26 31 31 30 29 28 26 27 32 30 30 29 30 35 40 41
22 21 20 20 19 19 18 17 17 17 17 18 17 17 17 16 17 18 18 19 18 18 17 17 19 21 24 28 29 30 30 29 29 28 29 29 29 27 23 29 30 33 40
21 21 21 21 21 19 19 19 19 19 20 20 19 18 18 17 18 20 20 19 18 16 15 17 18 21 24 26 27 28 29 29 31 32 30 29 28 27 25 22 25 28 32
21 22 21 20 20 20 22 22 22 23 22 21 20 19 18 18 20 20 21 19 18 17 17 17 18 21 24 24 24 25 25 25 28 29 30 30 28 27 27 25 23 23 29
21 20 20 21 22 23 25 25 25 25 24 23 22 21 20 20 20 20 20 20 17 17 17 17 19 21 23 24 23 23 24 26 27 28 29 30 30 29 29 28 27 26 25
19 20 21 22 24 26 26 27 27 27 26 24 24 23 22 21 19 19 19 18 16 17 17 18 20 22 23 23 23 24 25 25 26 27 29 29 28 28 29 30 30 29 28
20 21 23 25 26 27 27 28 29 28 27 26 26 24 23 22 20 19 18 17 17 18 16 17 21 22 23 24 24 24 24 25 26 27 27 27 28 29 29 30 32 32 34
22 24 26 27 28 29 30 29 30 29 28 28 27 26 24 24 22 21 18 17 18 19 18 20 21 22 24 25 25 24 23 24 25 25 26 27 28 29 30 29 29 31 31
28 29 30 30 31 32 32 31 31 31 30 29 28 27 25 25 24 22 20 19 19 19 20 21 21 23 25 26 26 26 23 24 25 26 25 25 27 28 29 29 28 28 30
31 31 32 33 33 34 34 34 33 30 30 30 28 27 27 27 24 22 19 20 18 19 20 21 22 24 25 26 26 25 25 24 25 25 25 24 25 26 27 28 28 27 28
29 31 33 34 35 36 37 36 34 33 32 29 27 25 27 26 24 20 21 20 17 19 20 21 23 25 26 26 26 26 25 25 25 25 25 24 24 25 26 26 26 26 26
30 32 34 36 37 38 37 37 35 33 31 30 28 27 27 23 22 20 22 18 18 19 20 22 23 25 26 26 25 25 26 26 26 25 25 24 23 24 25 24 24 23 23
32 33 35 36 36 36 36 35 34 32 31 30 29 26 24 23 21 20 19 17 19 20 21 23 23 25 25 25 25 25 27 27 26 25 25 24 22 22 23 22 21 22 21
32 32 32 34 34 33 33 33 32 31 30 29 27 25 23 22 21 19 18 18 19 19 21 24 25 25 25 25 26 27 27 27 26 25 25 24 22 22 21 19 20 19 20
29 30 30 30 29 31 30 29 29 29 28 27 26 23 23 23 19 18 18 18 19 20 23 25 25 25 25 26 27 27 28 27 25 23 23 22 22 21 19 18 18 18 19
29 30 30 29 29 28 28 27 28 27 27 26 25 24 23 20 18 19 19 18 19 21 22 22 24 23 22 21 21 23 25 25 24 22 21 20 20 19 17 16 17 18 18
29 29 29 29 29 28 27 26 26 25 25 25 25 23 21 19 19 19 18 18 20 20 20 20 19 19 19 18 18 19 21 21 21 19 18 18 19 17 15 14 16 17 17
30 30 30 30 29 28 27 26 26 25 25 24 23 22 20 19 18 18 18 19 19 18 16 15 15 15 15 16 18 20 20 19 18 17 17 17 18 16 13 14 14 16 18
30 29 29 29 29 28 27 26 26 24 23 23 22 21 19 16 18 17 17 17 16 14 13 11 12 10 11 16 18 18 17 16 13 14 16 16 15 14 14 14 15 17 17
Wind_Direction
109 107 51 53 105 297 270 254 255 285 300 310 323 328 331 333 333 338 342 342 344 344 342 340 341 342 342 343 343 339 335 331 323 324 328 332 332 335 335 335 335 334 332
85 241 233 196 233 236 236 257 283 292 300 309 316 319 323 328 334 335 336 336 335 334 334 335 336 335 337 340 338 337 334 333 329 326 330 332 335 337 335 334 334 334 333
240 206 212 233 240 237 249 267 278 281 290 300 309 318 322 328 327 327 326 327 328 328 330 329 327 331 335 334 335 335 334 335 333 328 329 334 335 338 334 334 333 333 334
197 219 234 237 238 243 255 267 271 277 286 300 307 314 317 318 319 317 317 322 325 325 322 320 323 329 331 332 334 337 337 333 333 333 331 332 336 337 335 332 331 333 333
223 235 235 237 240 248 258 263 268 276 287 297 303 309 312 308 307 311 316 320 321 317 313 315 321 322 326 329 333 334 335 335 334 332 331 330 333 334 332 331 330 328 331
234 234 239 240 242 249 258 264 268 274 288 292 297 299 299 304 310 310 312 314 314 309 309 314 317 320 323 327 328 332 337 335 334 331 327 328 327 327 329 332 326 327 326
235 237 240 242 246 251 259 264 269 276 283 286 289 287 292 300 305 309 310 309 309 307 308 312 315 316 323 324 329 333 335 336 332 327 327 326 322 328 328 324 323 318 318
239 242 243 245 248 254 260 267 274 276 276 277 280 285 290 297 304 306 308 307 305 306 308 310 314 322 327 327 328 332 333 334 333 333 325 320 323 323 318 318 313 315 317
242 245 247 248 253 259 264 268 272 272 271 273 276 282 289 296 301 306 303 300 301 301 302 313 320 322 326 328 328 329 329 332 333 335 330 328 328 327 326 317 325 324 321
249 251 249 251 256 264 271 273 272 269 268 270 274 282 288 295 302 298 295 295 295 300 314 313 315 319 323 327 326 327 328 333 332 332 333 333 333 332 330 330 326 323 320
250 251 254 259 267 274 275 274 271 266 267 271 276 281 286 293 293 293 294 297 296 304 305 306 317 321 324 326 327 329 328 323 329 330 333 335 334 334 333 334 333 326 318
252 255 261 268 272 275 275 274 272 270 270 273 277 281 284 284 283 284 288 292 295 296 300 312 322 324 326 327 329 329 326 328 330 332 333 336 337 336 335 336 336 333 325
253 258 264 270 276 278 279 277 274 272 274 275 278 279 276 275 276 280 283 286 287 292 304 316 320 321 322 326 331 330 329 329 331 332 332 335 335 334 337 336 336 335 334
258 267 273 277 280 281 281 278 276 277 277 275 275 275 273 273 275 277 278 278 284 292 303 313 314 317 323 326 327 328 329 331 331 329 329 331 332 339 340 339 337 339 339
271 274 278 282 283 284 284 283 281 279 276 276 275 271 269 269 271 272 273 278 283 292 304 310 312 318 324 324 326 328 328 326 325 325 327 329 336 337 338 339 340 340 341
278 280 282 282 282 282 283 283 282 281 277 275 271 270 267 264 267 270 273 276 279 292 301 307 315 320 321 322 325 324 324 324 324 325 327 332 333 335 336 339 339 340 340
279 281 281 282 282 283 283 283 283 280 276 274 270 266 262 263 264 270 272 276 282 290 299 308 315 316 318 320 321 320 323 325 322 324 327 330 330 333 336 337 338 338 339
286 285 284 284 284 283 282 282 280 277 276 274 270 265 259 260 262 267 271 276 282 288 300 307 313 314 317 319 319 318 319 320 319 321 324 327 331 331 333 335 336 337 337
289 288 286 284 284 283 280 278 276 275 274 272 266 259 260 259 262 263 271 274 278 289 298 306 309 312 316 315 314 316 316 316 316 319 321 324 328 327 330 333 332 335 336
291 290 289 287 285 282 279 277 275 274 271 268 266 261 257 255 260 266 266 271 281 290 299 304 309 313 313 312 314 314 312 313 313 315 315 317 322 324 327 328 331 333 338
295 293 291 288 286 284 280 276 274 272 270 267 265 263 258 252 260 262 263 271 282 293 300 306 311 311 312 313 314 313 312 312 312 310 309 311 317 320 322 323 327 331 337
303 301 299 295 290 286 283 278 273 270 268 265 262 259 255 255 262 263 266 273 284 295 303 307 307 309 313 316 316 315 314 315 313 307 304 307 313 316 317 319 326 328 338
310 306 302 297 292 288 283 277 272 269 266 263 260 255 251 260 262 261 266 277 290 298 302 304 308 314 319 322 323 323 322 323 319 313 307 306 308 313 315 317 325 330 333
314 309 303 298 292 287 282 278 273 268 264 261 257 252 252 254 256 261 273 285 295 301 304 308 313 320 326 333 334 333 329 326 322 319 312 309 309 314 314 316 327 329 331
310 305 300 295 291 285 280 275 270 267 264 259 254 250 250 252 256 265 278 290 297 301 305 310 316 326 333 340 337 334 332 331 329 324 320 312 310 314 312 312 319 331 327
307 303 298 293 289 285 279 275 271 267 259 254 249 247 249 250 259 272 283 290 295 300 305 312 324 336 345 340 337 334 334 338 342 341 333 326 321 316 312 313 316 308 316